Preview of NWS' New Version of Forecast
This preview is not operational and should not be used for support decisions.
Latest weather observations around

New Orleans, New Orleans International Airport (KMSY)

Using English Units (Switch to International System of Units)
Date/ Time (CDT) Wind (mph) Vis. (mi) Weather Sky Cond. Temp (°F) Rel. Humidity Wind Chill (°F) Heat Index (°F) Pressure Precip. (in)
Air Dwpt 6 hour Altimeter (inHg) Sea level (inHg) 1 hr 3 hr 6 hr
Max Min
Aug 20 10:53 6 10 Partly Cloudy SCT018 87 76     70%   98 30.06 30.06      
Aug 20 09:53 N 5 10 Mostly Cloudy SCT014 BKN020 BKN250 86 76     72%   96 30.06 30.06      
Aug 20 09:44 NE 5 10 Mostly Cloudy SCT014 BKN020 BKN250 85 76     75%   94 30.06        
Aug 20 08:53 N 5 10 Partly Cloudy SCT024 SCT250 84 75     74%   92 30.05 30.06      
Aug 20 07:53 W 3 10 Partly Cloudy SCT024 SCT250 79 76     90%   83 30.06 30.07      
Aug 20 06:53 SSW 3 10 Partly Cloudy FEW020 SCT250 77 74     90%   79 30.05 30.06     0
Aug 20 05:53 Calm 10 Partly Cloudy FEW023 SCT250 77 74     90%   79 30.03 30.04      
Aug 20 04:53 Calm 10 Mostly Cloudy SCT028 BKN250 78 75     90%   80 30.03 30.03 0    
Aug 20 03:53 WSW 6 10 Light Rain SCT022 BKN027 BKN250 78 74     87%   80 30.02 30.03 0 0  
Aug 20 03:01 SW 3 10 Mostly Cloudy SCT029 BKN038 BKN050 78 74     87%   80 30.02        
Aug 20 02:53 Calm 10 Mostly Cloudy BKN027 BKN250 78 74     87%   80 30.02 30.03      
Aug 20 01:53 WSW 3 10 Mostly Clear FEW033 77 74     90%   79 30.01 30.02      
Aug 20 00:53 SSW 3 10 Clear   78 75     90%   80 30.02 30.02      
Aug 19 23:53 Calm 10 Mostly Cloudy FEW012 SCT110 BKN250 78 75     90%   80 30.03 30.04      
Aug 19 22:53 SSW 3 10 Cloudy SCT035 OVC150 79 75     88%   83 30.02 30.03      
Aug 19 21:53 SE 6 10 Cloudy SCT035 OVC110 79 75     88%   83 30.03 30.03      
Aug 19 20:53 Calm 10 Cloudy SCT030 OVC200 80 75     85%   85 30.03 30.04      
Aug 19 19:53 S 3 10 Cloudy SCT030 BKN110 OVC200 80 75     85%   85 30 30.01      
Aug 19 18:53 WNW 8 10 Cloudy BKN032 BKN110 OVC250 80 75     85%   85 29.99 30 0   0
Aug 19 17:55 SSW 10 10 Light Rain SCT012 BKN032 OVC110 79 75     88%   83 29.99   0    
Aug 19 17:53 S 10 10 Light Rain BKN012 BKN028 OVC110 79 75     88%   83 30 30 0    
Aug 19 17:14 SSW 6 10 Light Rain BKN018 BKN055 OVC110 80 75     85%   85 30.03   0    
Aug 19 16:53 S 7 10 Light Rain SCT050 BKN065 OVC090 80 75     85%   85 30.02 30.03 0    
Aug 19 15:53 SSE 7 10 Cloudy SCT018 BKN055 OVC070 81 74     79%   86 30.05 30.06 0 0  
Aug 19 14:53 7 10 Light Rain FEW046 SCT065 SCT110 BKN250 80 74     82%   85 30.03 30.03 0    
Aug 19 13:53 WSW 11 10 Mostly Cloudy FEW009 SCT048 BKN120 BKN250 81 74     79%   86 30.04 30.05 0    
Aug 19 13:44 WSW 15 10 Cloudy FEW009 SCT048 OVC120 81 74     79%   86 30.04   0    
Aug 19 12:53 SSW 16 10 Thunderstorms and Rain SCT014 BKN025 OVC038 81 74     79%   86 30.06 30.07 0   0
Aug 19 12:22 SSE 15 10 Thunderstorms BKN014 BKN025 OVC075 82 75     79%   89 30.07        
Aug 19 12:15 SSE 14 10 Thunderstorms FEW014 BKN025 BKN040 OVC150 83 75     77%   90 30.06        
Aug 19 11:53 6 10 Thunderstorms SCT022 SCT090 BKN150 BKN250 90 77     66%   103 30.04 30.04      
Aug 19 11:38 5 10 Thunderstorms SCT022 SCT090 BKN150 BKN250 90 78     68%   105 30.04        
Aug 19 10:53 NW 6 10 Mostly Cloudy FEW029 FEW038 BKN090 BKN150 BKN250 89 77     68%   102 30.04 30.05      
Aug 19 09:53 W 3 10 Mostly Cloudy FEW023 SCT095 BKN150 BKN250 86 78     77%   98 30.05 30.05      
Aug 19 08:53 WSW 5 10 Mostly Cloudy FEW018 SCT075 SCT150 BKN250 83 78     85%   93 30.04 30.05      
Aug 19 07:53 W 3 10 Mostly Cloudy FEW020 SCT085 SCT150 BKN250 83 78     85%   93 30.03 30.03      
Aug 19 06:53 Calm 10 Mostly Cloudy FEW020 SCT150 BKN250 82 76     82%   89 30.02 30.03      
Aug 19 05:53 SW 3 10 Mostly Cloudy FEW020 SCT110 BKN250 81 76     85%   87 30 30      
Aug 19 04:53 SW 3 10 Cloudy FEW020 BKN090 OVC200 80 76     87%   85 30 30.01      
Aug 19 03:53 Calm 10 Mostly Cloudy FEW080 SCT160 BKN250 80 76     87%   85 29.99 29.99      
Aug 19 02:53 SSW 3 10 Mostly Cloudy BKN080 BKN250 81 77     88%   88 29.98 29.98      
Aug 19 01:53 S 6 10 Clear CLR 81 76     85%   87 29.98 29.99      
Aug 19 00:53 S 7 10 Mostly Cloudy FEW030 BKN250 81 76     85%   87 29.99 29.99      
Aug 18 23:53 S 5 10 Mostly Cloudy FEW040 FEW120 BKN250 81 75     82%   87 29.98 29.99      
Aug 18 22:53 SSW 8 10 Mostly Cloudy FEW080 SCT110 BKN250 80 74     82%   85 29.99 30      
Aug 18 21:53 S 7 10 Partly Cloudy FEW095 SCT120 SCT250 80 75     85%   85 30 30.01      
Aug 18 20:53 SSW 5 10 Mostly Cloudy FEW020 FEW100 SCT140 BKN250 80 75     85%   85 30 30.01      
Aug 18 19:53 S 6 10 Mostly Cloudy FEW020 FEW110 SCT150 BKN220 81 75     82%   87 29.98 29.99      
Aug 18 18:53 S 13 10 Mostly Cloudy FEW018 BKN085 BKN250 82 76     82%   89 29.98 29.99 0   0
Aug 18 17:53 SW 7 10 Cloudy FEW015 FEW045 SCT090 BKN140 OVC250 82 77     85%   90 29.99 30 0    
Aug 18 17:39 SSW 8 10 Mostly Cloudy FEW020 FEW045 SCT100 BKN150 82 77     85%   90 29.99   0    
Aug 18 17:24 WSW 6 10 Light Rain FEW020 SCT042 BKN080 BKN250 82 77     85%   90 29.99   0    
Aug 18 16:53 WSW 7 10 Light Rain FEW020 SCT035 BKN065 OVC250 84 76     77%   93 29.98 29.99 0    
Aug 18 16:31 SE 10 10 Cloudy FEW038 BKN060 OVC250 85 73     68%   92 29.98   0    
Aug 18 16:11 S 8 10 Thunderstorms SCT035 BKN080 BKN250 84 73     70%   90 29.98        
Aug 18 15:53 SSE 14 10 Mostly Cloudy FEW020 SCT035 BKN090 BKN250 88 75     66%   98 29.98 29.99   0  
Aug 18 14:53 WNW 8 10 Mostly Cloudy FEW040 FEW075 BKN110 BKN250 91 74     57%   101 29.96 29.97      
Aug 18 14:39 WNW 10 10 Mostly Cloudy FEW038 SCT065 BKN100 BKN250 88 75     66%   98 29.97        
Aug 18 14:24 WNW 10 10 Thunderstorms FEW038 BKN065 BKN100 BKN250 89 74     61%   98 29.97        
Aug 18 14:06 WSW 13 10 Mostly Cloudy SCT038 SCT065 BKN100 BKN250 92 77     62%   106 29.98        
Aug 18 13:53 WSW 9 10 Mostly Cloudy FEW040 SCT060 BKN100 BKN250 92 75     58%   103 29.98 29.99 0    
Aug 18 12:53 SW 8 10 Mostly Cloudy FEW035 FEW085 SCT110 BKN250 91 76     61%   103 30.01 30.01      
Aug 18 11:53 SW 8 10 Mostly Cloudy SCT024 SCT085 BKN140 BKN250 87 75     68%   97 30.01 30.02      
Aug 18 11:20 SSW 13 10 Mostly Cloudy SCT023 SCT085 SCT140 BKN250 87 77     72%   99 30.02        
Aug 18 10:53 WSW 8 10 Thunderstorms SCT022 SCT060 BKN095 BKN250 87 76     70%   98 30.01 30.02      
Aug 18 10:44 WSW 7 10 Thunderstorms SCT022 SCT060 BKN095 BKN250 87 77     72%   99 30.01        
Aug 18 09:53 WSW 10 10 Mostly Cloudy SCT030 SCT095 BKN150 BKN250 88 78     73%   102 30 30.01      
Aug 18 08:53 WSW 7 10 Partly Cloudy FEW028 SCT085 SCT250 86 78     77%   98 29.99 30      
Aug 18 07:53 W 3 10 Mostly Cloudy FEW025 BKN080 BKN250 82 77     85%   90 29.98 29.99      
Aug 18 06:53 SSW 3 10 Partly Cloudy FEW025 SCT085 SCT250 81 77     88%   88 29.97 29.98      
Aug 18 05:53 Calm 10 Partly Cloudy FEW035 SCT085 SCT250 81 77     88%   88 29.95 29.96      
Aug 18 04:53 SSW 3 10 Partly Cloudy SCT085 80 76     87%   85 29.94 29.95      
Aug 18 03:53 Calm 10 Mostly Clear FEW250 80 75     85%   85 29.94 29.95      
Aug 18 02:53 SW 3 10 Mostly Cloudy BKN250 79 75     88%   83 29.94 29.95      
Aug 18 01:53 Calm 10 Mostly Cloudy BKN250 80 75     85%   85 29.94 29.95      
Aug 18 00:53 SSW 5 10 Partly Cloudy FEW130 SCT250 81 75     82%   87 29.95 29.96      
Aug 17 23:53 SSW 5 10 Mostly Cloudy FEW130 BKN250 81 75     82%   87 29.95 29.96      
Aug 17 22:53 SSW 5 10 Mostly Cloudy SCT130 BKN250 82 76     82%   89 29.96 29.96      
Aug 17 21:53 S 5 10 Partly Cloudy FEW015 SCT130 SCT250 83 77     82%   92 29.96 29.96      
Aug 17 20:53 Calm 10 Mostly Cloudy FEW015 BKN130 BKN250 83 76     79%   91 29.95 29.95      
Aug 17 19:53 S 5 10 Mostly Cloudy FEW020 BKN130 BKN250 84 76     77%   93 29.92 29.93      
Aug 17 18:53 SW 7 10 Mostly Cloudy FEW020 BKN120 BKN250 86 77     75%   97 29.93 29.93     0
Aug 17 17:53 S 10 10 Mostly Cloudy FEW015 FEW030 BKN110 BKN250 87 74     65%   95 29.93 29.93      
Aug 17 16:53 SSE 7 10 Mostly Cloudy FEW030 FEW085 BKN110 BKN250 89 73     59%   97 29.92 29.93      
Aug 17 15:53 SSE 5 10 Mostly Cloudy FEW035 FEW085 BKN110 BKN150 90 74     59%   99 29.92 29.93   0  
Aug 17 14:53 Calm 10 Mostly Cloudy FEW035 BKN110 BKN250 86 74     67%   94 29.94 29.94 0    
Aug 17 14:05 W 6 10 Mostly Cloudy FEW033 FEW055 BKN130 BKN250 79 73     82%   82 29.95   0    
Aug 17 13:53 W 5 10 Light Rain FEW033 BKN150 BKN250 79 73     82%   82 29.96 29.97 0    
Aug 17 13:31 WSW 9 10 Mostly Cloudy FEW020 SCT034 BKN150 BKN250 80 71     74%   84 29.97        
Aug 17 12:53   10 Thunderstorms SCT026 SCT140 BKN250 90 75     62%   101 29.98 29.98      
Aug 17 12:40 5 10 Thunderstorms SCT026 SCT140 BKN250 93 75     56%   105 29.97        
Aug 17 11:53 6 10 Partly Cloudy SCT026 SCT045 SCT250 91 76     61%   103 29.97 29.98      
Aug 17 09:53 W 3 10 Partly Cloudy SCT027 SCT150 SCT250 88 77     70%   100 29.98 29.99      
May 14 13:53 ENE 10 10 Mostly Clear FEW055 93 66     41%   96 29.97 29.98      
May 14 07:53 NNW 7 8 Mostly Clear FEW075 79 74     85%   83 30.02 30.03      
May 14 00:53 W 3 10 Clear CLR 74 68     82%   75 29.99 30      
May 12 02:53 ESE 6 10 Clear CLR 75 71     88%   76 30.04 30.05      
Jun 12 01:53 SSE 10 10 Mostly Clear FEW049 77 73     88%   79 30.03 30.04      
Jun 11 17:48 SE 11 10 Light Rain FEW027 SCT044 BKN050 81 77     89%   87 30   0    
Jun 10 20:53 ESE 10 10 Mostly Clear FEW025 FEW065 79 69     72%   80 29.98 29.98      
Jun 10 06:53 ESE 7 10 Mostly Clear FEW020 74 69     85%   75 29.97 29.98      
Jun 09 22:53 SSE 9 10 Mostly Cloudy FEW015 FEW045 BKN250 77 68     74%   78 29.94 29.94      
Jun 09 07:53 ENE 6 10 Mostly Clear FEW250 77 65     66%   78 29.94 29.95      
Jun 07 15:53 NNW 13 10 Mostly Clear FEW035 FEW250 86 69     57%   90 29.78 29.79